Tracking 19854 objects as of 22-Sep-2019
HD Live streaming from Space Station
objects crossing your sky now

NOAA 16 DEB

Track NOAA 16 DEB now!
10-day predictions


NORAD ID: 41414
Int'l Code: 2000-055KT
Perigee: 763.4 km
Apogee: 865.5 km
Inclination: 99.0 °
Period: 101.0 minutes
Semi major axis: 7185 km
RCS: Unknown
Launch date: September 21, 2000
Source: United States (US)
Launch site: AIR FORCE WESTERN TEST RANGE (AFWTR)

Note: This is SATELLITE DEBRIS
aabbcc
Your satellite tracking list
Your tracking list is empty




NASA's NSSDC Master Catalog

Two Line Element Set (TLE):
1 41414U 00055KT  19263.54229736  .00000714  00000-0  31406-3 0  9992
2 41414  98.9684  17.0603 0070989  96.0122 264.9153 14.25353976186358
Source of the keplerian elements: AFSPC